Tracking 19575 objects as of 19-Feb-2019
HD Live streaming from Space Station
objects crossing your sky now

COSMOS 650

Track COSMOS 650 now!
10-day predictions
COSMOS 650 is classified as:


NORAD ID: 7281
Int'l Code: 1974-028A
Perigee: 1,374.1 km
Apogee: 1,407.9 km
Inclination: 74.0 °
Period: 113.4 minutes
Semi major axis: 7761 km
RCS: 3.562 m2 (large)
Launch date: April 29, 1974
Source: Commonwealth of Independent States (former USSR) (CIS)
Launch site: PLESETSK MISSILE AND SPACE COMPLEX (PKMTR)
aabbcc
Your satellite tracking list
Your tracking list is empty




NASA's NSSDC Master Catalog

Two Line Element Set (TLE):
1  7281U 74028A   19049.93926369 +.00000014 +00000-0 +15490-3 0  9996
2  7281 074.0408 275.5946 0021773 279.2343 181.5491 12.69528965076657
Source of the keplerian elements: AFSPC